COSMOS 1275 DEB, 17614

Orbit data source: Space-Track

COSMOS 1275 DEB, 17614 is space debris in LEO originally from a launch on Thu, 04 Jun 1981 UTC launched from the Plesetsk Missile And Space Complex (PKMTR). Debris objects in space refer to the collection of defunct objects orbiting the Earth. Examples of debris include non-operational satellites, rocket bodies, and fragments generated from explosions, collisions, or faulty payload assembly.

Loading next visibility...
Identifier
17614, 1981-053KH
Orbit
LEO
Country
Flag of CISCIS
Related business
Manufacturer
Unknown
Mission
Spacecraft
Bus & Motor
Unknown
Mass
Unknown
Launch date (UTC)
1981-06-04 (44 years ago)
Launch vehicle
Unknown
Launch site
Plesetsk Missile And Space Complex (PKMTR)
Object type
Payload
Rocket body
Debris
Shape & HBR
Unknown shape, 0.1 m
Radar Cross Section
Small (<0.1 m²)

Expand to show TLE details & history
Last TLE update: 17 hours ago

TLE from 17 hours ago
0 COSMOS 1275 DEB
1 17614U 81053KH  25286.40242914  .00004022  00000-0  22860-2 0  9993
2 17614  82.7788 265.7071 0045851  42.2994 109.3238 14.09132673 52933
Epoch: 2025-10-13T09:39Z
TLE epoch observation values (Epoch: 2025-10-13T09:39:29.877Z)
Latitude
27.68246°
Longitude
-85.16443°
Altitude
876.887 km
Speed
7.411 km/s
True Right ascension
05h 27m 39s
True Declination
27° 32' 37"
Sunlit
Object was in daylight at epoch
Visualization orbit readout
Latitude
Unknown
Longitude
Unknown
Altitude
Unknown
Speed
Unknown
Apparent Right ascension
Unknown
Apparent Declination
Unknown
Sunlit
N/A
Visualization observer readout
Local Sidereal Time
21:06:32
Azimuth
Unknown
Elevation
Unknown
Doppler factor
Unknown
Orbital elements
Apogee altitude
892.634 km
Perigee altitude
826.264 km
Semi-major axis
7,237.586 km
Eccentricity
0.00459
Inclination
82.7788°
RAAN
265.7071°
Arg. of periapsis
42.2994°
True anomaly
109.81867°
Mean anomaly
109.3238°
Eccentric anomaly
109.57133°
Mean motion
3.52495 °/min
Orbital period
102.13 mins
BSTAR
0.002286
Loading maneuver chart data...
Computing Atmospheric mass density...
Loading historical data...
Loading historical data...
Loading historical data...
Loading historical data...
Loading historical data...
Loading historical data...
Loading historical data...

Documentation

Showing up to 5 results
|